This is the latest recevied weather packets stored in our database for station/object IZ1MEU-13. If no packets are shown the sender has not sent any weather packets the latest 10 day(s).
| Time | Temp. | Humidity | Pressure | Rain* | Wind** | Luminosity | Snow |
|---|---|---|---|---|---|---|---|
| 1778114352 | 11.67° C | 65% | 1013.3 hPa | - | - | - | - |
| 1778113147 | 11.67° C | 65% | 1013.4 hPa | - | - | - | - |
| 1778111943 | 11.67° C | 66% | 1013.4 hPa | - | - | - | - |
| 1778111322 | 11.67° C | 65% | 1013.5 hPa | - | - | - | - |
| 1778110118 | 11.67° C | 65% | 1013.3 hPa | - | - | - | - |
| 1778108914 | 11.67° C | 65% | 1013 hPa | - | - | - | - |
| 1778107709 | 11.67° C | 64% | 1012.7 hPa | - | - | - | - |
| 1778106505 | 11.67° C | 64% | 1012.7 hPa | - | - | - | - |
| 1778105300 | 11.67° C | 66% | 1012.8 hPa | - | - | - | - |
| 1778104096 | 11.67° C | 66% | 1012.6 hPa | - | - | - | - |
| 1778102891 | 11.67° C | 66% | 1012.4 hPa | - | - | - | - |
| 1778101687 | 11.67° C | 67% | 1012.3 hPa | - | - | - | - |
| 1778100483 | 11.67° C | 68% | 1012.4 hPa | - | - | - | - |
| 1778099278 | 11.11° C | 70% | 1011.5 hPa | - | - | - | - |
| 1778098074 | 11.11° C | 70% | 1011 hPa | - | - | - | - |
| 1778096870 | 11.11° C | 69% | 1010.8 hPa | - | - | - | - |
| 1778095665 | 11.11° C | 68% | 1010.3 hPa | - | - | - | - |
| 1778094461 | 11.67° C | 66% | 1010.1 hPa | - | - | - | - |
| 1778093257 | 13.33° C | 61% | 1010.3 hPa | - | - | - | - |
| 1778092053 | 13.33° C | 61% | 1009.2 hPa | - | - | - | - |
| 1778090848 | 14.44° C | 60% | 1008.8 hPa | - | - | - | - |
| 1778089644 | 15° C | 60% | 1008.7 hPa | - | - | - | - |
| 1778088440 | 15° C | 59% | 1008.5 hPa | - | - | - | - |
| 1778087236 | 15.56° C | 57% | 1008.2 hPa | - | - | - | - |
| 1778086031 | 15° C | 55% | 1008.1 hPa | - | - | - | - |
* Rain since midnight (hover to see other rain measurements)
** Current wind speed in m/s (hover to see current wind gust speed)